Tracking 33198 objects as of 14-Feb-2026
HD Live streaming from Space Station
objects crossing your sky now

KUIPER-00085

Track KUIPER-00085 now!
10-day predictions
KUIPER-00085 is classified as:


NORAD ID: 64831
Int'l Code: 2025-151R
Perigee: 636.2 km
Apogee: 637.2 km
Inclination: 51.9 °
Period: 97.3 minutes
Semi major axis: 7007 km
RCS: Unknown
Launch date: July 16, 2025
Source: United States (US)
Launch site: AIR FORCE EASTERN TEST RANGE (AFETR)
Your satellite tracking list
Your tracking list is empty




NASA's NSSDC Master Catalog

Two Line Element Set (TLE):
1 64831U 25151R   26044.36148282  .00004950  00000-0  67797-3 0  9993
2 64831  51.9036  35.7000 0000774  91.9645 268.1406 14.79922933 31870
Source of the keplerian elements: AFSPC